Regional Weather Roundup
Issued by NWS Raleigh/Durham, NC

Home | Current Version | Previous Version | Text Only | Print | Product List | Glossary On
Versions: 1 2 3 4 5 6 7 8 9 10 11 12 13 14 15 16 17 18 19 20 21 22 23 24 25 26 27 28 29 30 31 32 33 34 35 36 37 38 39 40 41 42 43 44 45 46 47 48 49 50
000
ASUS42 KRAH 192110
RWRRAH
NORTH CAROLINA WEATHER ROUNDUP
NATIONAL WEATHER SERVICE RALEIGH NC
400 PM EST FRI DEC 19 2014

NOTE: "FAIR" INDICATES FEW OR NO CLOUDS BELOW 12,000 FEET WITH NO
SIGNIFICANT WEATHER AND/OR OBSTRUCTIONS TO VISIBILITY.

NCZ001-053-055-056-065-067-192200-
WESTERN NORTH CAROLINA

CITY           SKY/WX    TMP DP  RH WIND       PRES   REMARKS
ASHEVILLE      PTSUNNY   49  29  46 N9        30.09R
JEFFERSON      CLOUDY    41  19  42 W9        30.08R
MORGANTON      PTSUNNY   53  32  45 CALM      30.14R
HICKORY        PTSUNNY   52  29  41 CALM      30.10R
RUTHERFORDTON  PTSUNNY   54  33  44 S7        30.11R
MOUNT AIRY     PTSUNNY   50  25  36 CALM      30.13R
BOONE          PTSUNNY   41  23  49 NW9       30.09R
$$

NCZ021-022-025-041-071-084-088-192200-
CENTRAL NORTH CAROLINA

CITY           SKY/WX    TMP DP  RH WIND       PRES   REMARKS
CHARLOTTE      CLOUDY    54  27  35 CALM      30.12R
GREENSBORO     PTSUNNY   51  22  31 NW7       30.10S
WINSTON-SALEM  PTSUNNY   51  21  30 NW3       30.12S
RALEIGH-DURHAM MOCLDY    50  25  37 N5        30.13S
FORT BRAGG     SUNNY     56  22  27 NE1       30.11S
FAYETTEVILLE   SUNNY     56  23  27 CALM      30.11S
BURLINGTON     PTSUNNY   51  22  31 N5        30.11F
LAURINBURG     SUNNY     57  26  30 VRB3      30.11F
$$

NCZ011-015-027-028-043-044-047-080-103-192200-
NORTHEASTERN NORTH CAROLINA

CITY           SKY/WX    TMP DP  RH WIND       PRES   REMARKS
ROCKY MT-WILSO PTCLDY    49  27  42 N3        30.15R
GREENVILLE     PTCLDY    48  30  49 N5        30.16R
WASHINGTON     CLEAR     47  29  48 N3        30.15R
ELIZABETH CITY CLEAR     49  28  44 N3        30.15R
MANTEO         CLEAR     42  32  67 N7        30.15R
CAPE HATTERAS  CLEAR     46  34  62 NE6       30.13R
$$

NCZ078-087-090-091-093-098-101-192200-
SOUTHEASTERN NORTH CAROLINA

CITY           SKY/WX    TMP DP  RH WIND       PRES   REMARKS
LUMBERTON      SUNNY     59  26  28 CALM      30.10F
GOLDSBORO      CLEAR     51  33  51 CALM      30.12R
KINSTON        CLEAR     50  30  46 N3        30.15R
KENANSVILLE    CLEAR     52  27  37 N3        30.13S
NEW BERN       CLEAR     53  30  41 N6        30.15R
CHERRY POINT   CLEAR     53  28  38 N7        30.14R
BEAUFORT       CLEAR     52  31  44 NE7       30.13R
JACKSONVILLE   CLEAR     55  28  35 N7        30.12R
WILMINGTON     SUNNY     58  27  30 N5        30.11S
$$



USA.gov is the U.S. government's official web portal to all federal, state and local government web resources and services.